Time,TemperatureF,DewpointF,PressureIn,WindDirection,WindDirectionDegrees,WindSpeedMPH,WindSpeedGustMPH,Humidity,HourlyPrecipIn,Conditions,Clouds,dailyrainin,SoftwareType,DateUTC
2013-08-23 00:24:00,71.0,71.0,29.99,SW,222,0.0,0.0,99,0.00,,,0.27,,2013-08-23 04:24:00,
2013-08-23 00:54:00,71.0,71.0,30.00,SW,222,0.0,0.0,99,0.00,,,0.27,,2013-08-23 04:54:00,
2013-08-23 01:13:00,71.0,71.0,30.00,SW,222,0.0,0.0,99,0.00,,,0.27,,2013-08-23 05:13:00,
2013-08-23 01:22:00,71.0,71.0,30.00,SW,222,0.0,0.0,99,0.00,,,0.27,,2013-08-23 05:22:00,
2013-08-23 01:53:00,70.0,70.0,30.00,SW,222,0.0,0.0,99,0.00,,,0.27,,2013-08-23 05:53:00,
2013-08-23 02:02:00,70.0,70.0,30.00,SW,222,0.0,0.0,99,0.00,,,0.27,,2013-08-23 06:02:00,
2013-08-23 02:12:00,70.0,70.0,30.00,SW,222,0.0,0.0,99,0.00,,,0.27,,2013-08-23 06:12:00,
2013-08-23 02:22:00,70.0,70.0,30.00,SW,222,0.0,0.0,99,0.00,,,0.27,,2013-08-23 06:22:00,
2013-08-23 02:52:00,69.0,69.0,30.00,SW,222,0.0,0.0,99,0.00,,,0.27,,2013-08-23 06:52:00,
2013-08-23 03:22:00,69.0,69.0,29.99,SW,222,0.0,0.0,99,0.00,,,0.27,,2013-08-23 07:22:00,
2013-08-23 03:52:00,69.0,69.0,29.99,SW,222,0.0,0.0,99,0.00,,,0.27,,2013-08-23 07:52:00,
2013-08-23 04:22:00,68.0,68.0,29.99,SW,222,0.0,0.0,99,0.00,,,0.27,,2013-08-23 08:22:00,
2013-08-23 04:52:00,68.0,68.0,29.99,SW,222,0.0,0.0,99,0.01,,,0.28,,2013-08-23 08:52:00,
2013-08-23 05:21:00,68.0,68.0,29.99,SW,222,0.0,0.0,99,0.01,,,0.28,,2013-08-23 09:21:00,
2013-08-23 05:33:00,68.0,68.0,29.99,SW,222,0.0,0.0,99,0.01,,,0.28,,2013-08-23 09:33:00,
2013-08-23 05:53:00,68.0,68.0,30.00,SW,222,0.0,0.0,99,0.01,,,0.28,,2013-08-23 09:53:00,
2013-08-23 06:23:00,67.0,67.0,30.00,SW,222,0.0,0.0,99,0.00,,,0.28,,2013-08-23 10:23:00,
2013-08-23 06:33:00,67.0,67.0,30.00,SW,222,0.0,0.0,99,0.00,,,0.28,,2013-08-23 10:33:00,
2013-08-23 06:42:00,67.0,67.0,30.00,SW,222,0.0,0.0,99,0.00,,,0.28,,2013-08-23 10:42:00,
2013-08-23 06:52:00,67.0,67.0,30.00,SW,222,0.0,0.0,99,0.00,,,0.28,,2013-08-23 10:52:00,
2013-08-23 07:22:00,67.0,67.0,30.02,SW,222,0.0,0.0,99,0.00,,,0.28,,2013-08-23 11:22:00,
2013-08-23 07:53:00,67.0,67.0,30.03,SW,222,0.0,0.0,99,0.00,,,0.28,,2013-08-23 11:53:00,
2013-08-23 08:11:00,67.0,67.0,30.03,SW,222,0.0,0.0,99,0.00,,,0.28,,2013-08-23 12:11:00,
2013-08-23 08:22:00,67.0,67.0,30.03,SW,222,0.0,0.0,99,0.00,,,0.28,,2013-08-23 12:22:00,
2013-08-23 08:52:00,67.0,67.0,30.04,SW,222,0.0,0.0,99,0.00,,,0.02,,2013-08-23 12:52:00,
2013-08-23 09:22:00,68.0,68.0,30.05,SW,222,0.0,0.0,99,0.00,,,0.02,,2013-08-23 13:22:00,
2013-08-23 09:32:00,68.0,68.0,30.05,SW,222,0.0,0.0,99,0.00,,,0.02,,2013-08-23 13:32:00,
2013-08-23 09:52:00,70.0,70.0,30.05,WSW,241,0.0,0.0,99,0.00,,,0.01,,2013-08-23 13:52:00,
2013-08-23 10:22:00,73.0,72.0,30.06,East,94,0.0,3.0,96,0.00,,,0.01,,2013-08-23 14:22:00,
2013-08-23 10:52:00,75.0,70.0,30.07,NNE,16,0.0,0.0,85,0.00,,,0.01,,2013-08-23 14:52:00,
2013-08-23 11:22:00,78.0,69.0,30.07,SE,135,0.0,2.0,74,0.00,,,0.01,,2013-08-23 15:22:00,
2013-08-23 11:54:00,78.0,66.0,30.07,ESE,122,0.0,0.0,66,0.00,,,0.01,,2013-08-23 15:54:00,
2013-08-23 12:13:00,80.0,65.0,30.07,ENE,75,0.0,0.0,61,0.00,,,0.01,,2013-08-23 16:13:00,
2013-08-23 12:24:00,80.0,65.0,30.07,ENE,75,0.0,0.0,61,0.00,,,0.01,,2013-08-23 16:24:00,
2013-08-23 12:53:00,82.0,63.0,30.07,West,277,0.0,0.0,53,0.00,,,0.01,,2013-08-23 16:53:00,
2013-08-23 13:24:00,82.0,62.0,30.07,SE,132,0.0,0.0,51,0.00,,,0.01,,2013-08-23 17:24:00,
2013-08-23 13:53:00,83.0,61.0,30.07,WSW,257,0.0,0.0,47,0.00,,,0.01,,2013-08-23 17:53:00,
2013-08-23 14:22:00,83.0,57.0,30.07,WNW,298,0.0,2.0,41,0.00,,,0.01,,2013-08-23 18:22:00,
2013-08-23 14:52:00,81.0,56.0,30.08,WNW,298,0.0,0.0,43,0.00,,,0.01,,2013-08-23 18:52:00,
2013-08-23 15:22:00,81.0,56.0,30.08,North,350,0.0,3.0,42,0.00,,,0.01,,2013-08-23 19:22:00,
2013-08-23 15:52:00,79.0,55.0,30.08,North,11,0.0,0.0,43,0.00,,,0.01,,2013-08-23 19:52:00,
2013-08-23 16:22:00,79.0,55.0,30.08,East,81,0.0,4.0,43,0.00,,,0.01,,2013-08-23 20:22:00,
2013-08-23 16:52:00,78.0,56.0,30.08,SW,219,0.0,3.0,46,0.00,,,0.01,,2013-08-23 20:52:00,
2013-08-23 17:22:00,77.0,54.0,30.07,NNW,341,0.0,0.0,45,0.00,,,0.01,,2013-08-23 21:22:00,
2013-08-23 17:54:00,77.0,55.0,30.08,NW,322,0.0,4.0,47,0.00,,,0.01,,2013-08-23 21:54:00,
2013-08-23 18:24:00,78.0,58.0,30.08,East,87,0.0,0.0,50,0.00,,,0.01,,2013-08-23 22:24:00,
2013-08-23 18:53:00,77.0,56.0,30.08,East,94,0.0,0.0,48,0.00,,,0.01,,2013-08-23 22:53:00,
2013-08-23 19:22:00,74.0,54.0,30.08,East,94,0.0,0.0,49,0.00,,,0.01,,2013-08-23 23:22:00,
2013-08-23 19:54:00,73.0,55.0,30.08,East,94,0.0,0.0,54,0.00,,,0.01,,2013-08-23 23:54:00,
2013-08-23 20:22:00,70.0,55.0,30.09,East,94,0.0,0.0,59,0.00,,,0.01,,2013-08-24 00:22:00,
2013-08-23 20:53:00,68.0,54.0,30.09,East,94,0.0,0.0,61,0.00,,,0.01,,2013-08-24 00:53:00,
2013-08-23 21:22:00,65.0,55.0,30.11,East,94,0.0,0.0,70,0.00,,,0.01,,2013-08-24 01:22:00,
2013-08-23 21:53:00,64.0,56.0,30.12,East,94,0.0,0.0,76,0.00,,,0.01,,2013-08-24 01:53:00,
2013-08-23 22:22:00,62.0,56.0,30.13,East,94,0.0,0.0,82,0.00,,,0.01,,2013-08-24 02:22:00,
2013-08-23 22:52:00,61.0,56.0,30.14,East,94,0.0,0.0,83,0.00,,,0.01,,2013-08-24 02:52:00,
2013-08-23 23:22:00,61.0,58.0,30.14,East,94,0.0,0.0,90,0.00,,,0.01,,2013-08-24 03:22:00,
2013-08-23 23:55:00,60.0,58.0,30.15,East,94,0.0,0.0,92,0.00,,,0.01,,2013-08-24 03:55:00,